Location: Mentone
(34.5413°N, 85.5351°W)
Time: 02:52:51
(UTC-05:00)

ADEOS Rocket - Visible Passes

Search period start: 22 August 2014 00:00
Search period end: 01 September 2014 00:00
Orbit: 859 x 1307 km, 98.7° (Epoch: 21 August)

Date Brightness Start Highest point End Pass type
(mag) Time Alt. Az. Time Alt. Az. Time Alt. Az.
22 Aug 4.3 20:28:44 15° E 20:30:19 17° ENE 20:33:41 10° NNE visible
22 Aug 3.3 22:15:42 51° W 22:15:42 51° W 22:20:46 10° NNW visible
23 Aug 2.8 21:26:14 54° E 21:26:30 55° ENE 21:31:54 10° N visible
23 Aug 5.1 23:13:12 14° W 23:13:12 14° W 23:15:22 10° WNW visible
24 Aug 4.1 20:36:46 19° E 20:37:59 20° ENE 20:41:54 10° NNE visible
24 Aug 3.7 22:23:44 42° W 22:23:44 42° W 22:28:26 10° NNW visible
25 Aug 2.7 21:34:16 66° ENE 21:34:16 66° ENE 21:39:46 10° N visible
25 Aug 5.4 23:21:13 11° W 23:21:13 11° W 23:22:08 10° WNW visible
26 Aug 3.9 20:44:48 23° E 20:45:39 24° ENE 20:50:02 10° NNE visible
26 Aug 4.1 22:31:45 34° W 22:31:45 34° W 22:36:03 10° NNW visible
27 Aug 2.7 21:42:17 76° NNE 21:42:17 76° NNE 21:47:36 10° N visible
28 Aug 3.7 20:52:49 28° ENE 20:53:20 29° ENE 20:58:06 10° N visible
28 Aug 4.4 22:39:47 28° WNW 22:39:47 28° WNW 22:43:39 10° NW visible
29 Aug 4.7 20:04:23 10° ENE 20:05:07 10° ENE 20:05:51 10° NE visible
29 Aug 2.9 21:50:19 72° NNW 21:50:19 72° NNW 21:55:25 10° NNW visible
30 Aug 3.5 21:00:50 34° ENE 21:01:01 34° ENE 21:06:07 10° N visible
30 Aug 4.7 22:47:48 23° WNW 22:47:48 23° WNW 22:51:10 10° NW visible
31 Aug 4.6 20:11:22 12° ENE 20:12:45 13° ENE 20:15:09 10° NE visible
31 Aug 3.2 21:58:20 61° NW 21:58:20 61° NW 22:03:13 10° NNW visible
